Home   Weather   Willemstad   Past weeks

Flag for Curaçao Past Weather in Willemstad, Curaçao — Yesterday and Last 2 Weeks

Now
84 °F

Passing clouds.


Feels Like: 94 °F
Forecast: 82 / 88 °F
Wind: 20 mph from Southeast

Location: Hato Airport - Curacao

Current Time: Oct 1, 2016 at 9:54:07 AM

Latest Report: Oct 1, 2016 at 9:00 AM


Visibility: N/A

Pressure: 29.77 "Hg

Humidity: 79%

Dew Point: 77 °F

Location of WillemstadLocation

Past Weather in Willemstad — Graph

°F

Willemstad Temperature Yesterday

Maximum temperature yesterday: 88 °F (at 10:00 AM)
Minimum temperature yesterday: 79 °F (at 5:00 AM)
Average temperature yesterday: 82 °F

High & Low Weather Summary for the Past Weeks

 TemperatureHumidityPressure
High95 °F (Sep 19, 2:00 PM)94% (Sep 29, 4:00 AM)29.98 "Hg (Sep 29, 4:00 AM)
Low79 °F (Sep 29, 4:00 AM)50% (Sep 19, 2:00 PM)29.68 "Hg (Sep 30, 2:00 PM)
Average85 °F77%29.86 "Hg
* Reported Sep 16 8:00 AM — Oct 1 8:00 AM, Willemstad, Weather by CustomWeather, © 2016

Note: Actual official high and low records may vary slightly from our data, if they occured in-between our weather recording intervals... More about our weather records

Advertising

Willemstad Weather History for the Previous 24 Hours

Scroll right to see more
 ConditionsComfort  
Time TempWeatherWind HumidityBarometerVisibility
8:00 AM
Sat, Oct 1
84 °FPassing clouds.18 mph84%29.77 "HgN/A
7:00 AM82 °FScattered clouds.16 mph84%29.74 "HgN/A
6:00 AM82 °FPassing clouds.17 mph84%29.74 "HgN/A
5:00 AM82 °FPassing clouds.15 mph84%29.71 "HgN/A
2:00 AM82 °FPassing clouds.16 mph84%29.71 "HgN/A
12:00 AM82 °FPassing clouds.16 mph89%29.74 "HgN/A
11:00 PM
Fri, Sep 30
84 °FPassing clouds.17 mph79%29.77 "HgN/A
10:00 PM82 °FPassing clouds.15 mph89%29.74 "HgN/A
9:00 PM82 °FPassing clouds.14 mph89%29.74 "HgN/A
8:00 PM82 °FPassing clouds.14 mph84%29.71 "HgN/A
7:00 PM82 °FThunderstorms. Passing clouds.14 mph84%29.71 "HgN/A
6:00 PM82 °FPassing clouds.15 mph84%29.68 "HgN/A
5:00 PM81 °FThunderstorms. Passing clouds.10 mph89%29.68 "HgN/A
4:00 PM81 °FThunderstorms. Scattered clouds.9 mph89%29.68 "HgN/A
3:00 PM82 °FThunderstorms. Scattered clouds.23 mph84%29.71 "HgN/A
2:00 PM81 °FThunderstorms. Scattered clouds.15 mph89%29.68 "Hg5 mi
1:00 PM88 °FPassing clouds.18 mph66%29.71 "HgN/A
12:00 PM88 °FPassing clouds.15 mph66%29.77 "HgN/A
11:00 AM86 °FPassing clouds.16 mph70%29.77 "HgN/A
10:00 AM88 °FPassing clouds.14 mph66%29.77 "HgN/A
9:00 AM82 °FPassing clouds.7 mph84%29.77 "HgN/A
Weather by CustomWeather, © 2016

See weather overviewHow to use our weather pages